CW8659 Weather Reports


time (UTC)temp
C
wind
direction
speed
KPH
gust
KPH
rain 1hr
cm
rain 24hr
cm
rain mn
cm
humidity
%
barometer
mb
20260504081821 0 190 0.0 0.0 0.00 0.00 0.00 88 1011.8
20260504081327 0 190 0.0 0.0 0.00 0.00 0.00 87 1011.8
20260504080820 0 190 0.0 0.0 0.00 0.00 0.00 87 1011.7
20260504080325 0 190 0.0 0.0 0.00 0.00 0.00 87 1011.7
20260504070333 1 190 0.0 0.0 0.00 0.00 0.00 86 1011.6
20260504050339 2 190 0.0 0.0 0.00 0.00 0.00 83 1011.5
20260504045822 2 190 0.0 0.0 0.00 0.00 0.00 83 1011.6
20260504045323 2 190 0.0 0.0 0.00 0.00 0.00 83 1011.5
20260504044836 2 190 0.0 0.0 0.00 0.00 0.00 83 1011.4
20260504044345 2 190 0.0 0.0 0.00 0.00 0.00 83 1011.5
20260504043833 2 190 0.0 0.0 0.00 0.00 0.00 83 1011.4
20260504043339 2 190 0.0 0.0 0.00 0.00 0.00 82 1011.4
20260504042823 2 190 0.0 0.0 0.00 0.00 0.00 82 1011.4
20260504042325 2 190 0.0 0.0 0.00 0.00 0.00 81 1011.4
20260504041828 2 190 0.0 0.0 0.00 0.00 0.00 81 1011.2
20260504041350 2 190 0.0 0.0 0.00 0.00 0.00 81 1011.2
20260504040856 2 190 0.0 0.0 0.00 0.00 0.00 81 1011.1
20260504040340 2 190 0.0 0.0 0.00 0.00 0.00 80 1011.0
20260504035827 2 190 0.0 0.0 0.00 0.00 0.00 80 1011.0
20260504035331 2 190 0.0 0.0 0.00 0.00 0.00 79 1011.0
20260504034837 3 190 0.0 0.0 0.00 0.00 0.00 79 1010.9
20260504034338 3 190 0.0 0.0 0.00 0.00 0.00 79 1010.8
20260504033830 3 190 0.0 0.0 0.00 0.00 0.00 79 1010.7
20260504033319 3 190 0.0 0.0 0.00 0.00 0.00 78 1010.7
20260504032845 3 190 0.0 0.0 0.00 0.00 0.00 78 1010.7
20260504032326 3 190 0.0 0.0 0.00 0.00 0.00 78 1010.8
20260504031829 3 190 0.0 0.0 0.00 0.00 0.00 77 1010.8
20260504031334 3 190 0.0 0.0 0.00 0.00 0.00 76 1010.8
20260504030857 3 190 0.0 0.0 0.00 0.00 0.00 76 1010.7
20260504030324 3 190 0.0 0.0 0.00 0.00 0.00 74 1010.6
20260504025831 3 190 0.0 0.0 0.00 0.00 0.00 74 1010.7
20260504025339 4 190 0.0 0.0 0.00 0.00 0.00 74 1010.7
20260504024846 4 190 0.0 0.0 0.00 0.00 0.00 74 1010.7
20260504024351 4 190 0.0 0.0 0.00 0.00 0.00 73 1010.8
20260504023832 4 190 0.0 0.0 0.00 0.00 0.00 72 1010.8
20260504023338 4 190 0.0 0.0 0.00 0.00 0.00 73 1010.8
20260504022817 5 190 0.0 0.0 0.00 0.00 0.00 73 1010.8
20260504022325 5 190 0.0 0.0 0.00 0.00 0.00 73 1010.8
20260504021823 5 190 0.0 0.0 0.00 0.00 0.00 73 1010.8
20260504021330 5 190 0.0 0.0 0.00 0.00 0.00 72 1010.8
20260504020853 5 190 0.0 0.0 0.00 0.00 0.00 72 1010.9
20260504020318 6 190 0.0 0.0 0.00 0.00 0.00 71 1010.8
20260504015844 6 190 0.0 0.0 0.00 0.00 0.00 70 1010.7
20260504015331 6 190 0.0 0.0 0.00 0.00 0.00 70 1010.7
20260504014835 6 190 0.0 0.0 0.00 0.00 0.00 68 1010.6
20260504014316 6 190 0.0 0.0 0.00 0.00 0.00 66 1010.5
20260504013819 6 190 0.0 0.0 0.00 0.00 0.00 66 1010.5
20260504013315 7 190 0.0 0.0 0.00 0.00 0.00 65 1010.5
20260504012824 7 190 0.0 0.0 0.00 0.00 0.00 63 1010.5
20260504012331 7 190 0.0 0.0 0.00 0.00 0.00 60 1010.5
20260504011815 8 190 0.0 0.0 0.00 0.00 0.00 61 1010.5
20260504011339 8 190 0.0 0.0 0.00 0.00 0.00 57 1010.4
20260504010826 8 190 0.0 0.0 0.00 0.00 0.00 58 1010.3
20260504010334 9 190 0.0 0.0 0.00 0.00 0.00 55 1010.3
20260504005839 9 190 0.0 0.0 0.00 0.00 0.00 50 1010.2
20260504005318 10 190 0.0 0.0 0.00 0.00 0.00 51 1010.2
20260504004823 10 190 0.0 0.0 0.00 0.00 0.00 52 1010.1
20260504004350 11 190 0.0 0.0 0.00 0.00 0.00 48 1010.1
20260504003832 11 190 0.0 0.0 0.00 0.00 0.00 43 1010.1
20260504003320 11 192 0.0 0.0 0.00 0.00 0.00 41 1010.1
20260504002826 11 192 0.0 0.0 0.00 0.00 0.00 43 1010.0
20260504002338 12 191 0.0 0.0 0.00 0.00 0.00 40 1009.9
20260504001844 12 191 0.0 0.0 0.00 0.00 0.00 39 1010.0
20260504001320 12 222 0.0 0.0 0.00 0.00 0.00 38 1009.9
20260504000828 12 222 0.0 0.0 0.00 0.00 0.00 38 1009.9
20260504000350 12 202 0.0 0.0 0.00 0.00 0.00 37 1009.8
20260503235818 12 241 0.0 0.0 0.00 0.00 0.00 36 1009.8
20260503235322 12 222 0.0 0.0 0.00 0.00 0.00 36 1009.7
20260503234827 13 179 0.0 0.0 0.00 0.00 0.00 36 1009.5
20260503234320 13 176 1.6 0.0 0.00 0.00 0.00 35 1009.5
20260503233824 13 259 1.6 0.0 0.00 0.00 0.00 35 1009.5
20260503233327 13 285 1.6 0.0 0.00 0.00 0.00 35 1009.4
20260503232829 13 237 1.6 0.0 0.00 0.00 0.00 35 1009.4
20260503232322 13 187 1.6 0.0 0.00 0.00 0.00 34 1009.4
20260503231831 13 17 1.6 0.0 0.00 0.00 0.00 34 1009.4
20260503231338 14 313 0.0 0.0 0.00 0.00 0.00 34 1009.4
20260503230906 13 265 0.0 0.0 0.00 0.00 0.00 34 1009.4
20260503230317 13 332 0.0 0.0 0.00 0.00 0.00 34 1009.4
20260503225821 13 13 0.0 0.0 0.00 0.00 0.00 33 1009.3
20260503225329 13 253 1.6 0.0 0.00 0.00 0.00 34 1009.4
20260503224835 14 272 3.2 0.0 0.00 0.00 0.00 34 1009.3
20260503224322 14 254 3.2 0.0 0.00 0.00 0.00 32 1009.3
20260503223828 14 344 1.6 0.0 0.00 0.00 0.00 33 1009.3
20260503223336 14 191 0.0 0.0 0.00 0.00 0.00 36 1009.4
20260503222841 13 355 0.0 0.0 0.00 0.00 0.00 33 1009.3
20260503222343 13 235 1.6 0.0 0.00 0.00 0.00 34 1009.4
20260503221816 13 53 3.2 0.0 0.00 0.00 0.00 34 1009.3
20260503221322 13 217 1.6 0.0 0.00 0.00 0.00 33 1009.3
20260503220831 14 247 0.0 0.0 0.00 0.00 0.00 33 1009.4
20260503220329 14 285 1.6 0.0 0.00 0.00 0.00 32 1009.4
20260503215835 15 355 3.2 0.0 0.00 0.00 0.00 32 1009.4
20260503215323 15 268 4.8 0.0 0.00 0.00 0.00 32 1009.4
20260503214828 15 302 3.2 0.0 0.00 0.00 0.00 31 1009.4
20260503214313 15 215 3.2 0.0 0.00 0.00 0.00 31 1009.2
20260503213822 14 360 1.6 0.0 0.00 0.00 0.00 32 1009.2
20260503213325 14 341 1.6 0.0 0.00 0.00 0.00 31 1009.0
20260503212851 14 188 1.6 0.0 0.00 0.00 0.00 31 1009.2
20260503212333 14 196 1.6 0.0 0.00 0.00 0.00 31 1009.0
20260503211817 14 238 1.6 0.0 0.00 0.00 0.00 30 1008.9
20260503211345 14 231 1.6 0.0 0.00 0.00 0.00 30 1008.8
20260503210852 14 342 3.2 0.0 0.00 0.00 0.00 30 1008.9
20260503210329 15 248 3.2 0.0 0.00 0.00 0.00 29 1008.9
20260503205834 15 179 1.6 0.0 0.00 0.00 0.00 28 1008.7
20260503205325 15 309 3.2 0.0 0.00 0.00 0.00 31 1008.6
20260503204827 14 25 3.2 0.0 0.00 0.00 0.00 30 1008.8
20260503204329 14 360 4.8 0.0 0.00 0.00 0.00 31 1008.9
20260503203825 14 9 4.8 0.0 0.00 0.00 0.00 28 1009.0
20260503203332 15 19 3.2 0.0 0.00 0.00 0.00 29 1008.8
20260503202817 15 287 4.8 0.0 0.00 0.00 0.00 29 1008.9
20260503202322 14 278 6.4 0.0 0.00 0.00 0.00 29 1008.8
20260503201847 14 67 4.8 0.0 0.00 0.00 0.00 28 1008.9
20260503201331 14 28 3.2 0.0 0.00 0.00 0.00 33 1009.0
20260503200823 14 338 3.2 0.0 0.00 0.00 0.00 30 1009.0
20260503200319 15 35 1.6 0.0 0.00 0.00 0.00 31 1009.0
20260503195852 14 250 0.0 0.0 0.00 0.00 0.00 34 1009.2
20260503195329 14 221 1.6 0.0 0.00 0.00 0.00 29 1009.2
20260503194835 15 242 3.2 0.0 0.00 0.00 0.00 30 1009.3
20260503194312 15 212 3.2 0.0 0.00 0.00 0.00 30 1009.4
20260503193817 14 247 6.4 0.0 0.00 0.00 0.00 29 1009.4
20260503193326 14 258 4.8 0.0 0.00 0.00 0.00 34 1009.5
20260503192852 13 305 4.8 0.0 0.00 0.00 0.00 29 1009.6
20260503192340 13 301 8.0 0.0 0.00 0.00 0.00 33 1009.9
20260503191822 13 305 6.4 0.0 0.00 0.00 0.00 30 1009.7
20260503191331 13 360 1.6 0.0 0.00 0.00 0.00 33 1010.0
20260503190816 13 9 1.6 0.0 0.00 0.00 0.00 35 1009.8
20260503190345 12 194 1.6 0.0 0.00 0.00 0.00 35 1009.8
20260503185831 12 321 3.2 0.0 0.00 0.00 0.00 32 1010.0
20260503185332 12 11 4.8 0.0 0.00 0.00 0.00 32 1010.1
20260503184835 13 312 3.2 0.0 0.00 0.00 0.00 35 1010.1
20260503184343 12 68 4.8 0.0 0.00 0.00 0.00 34 1009.9
20260503183816 12 25 4.8 0.0 0.00 0.00 0.00 33 1010.2
20260503183321 12 42 4.8 0.0 0.00 0.00 0.00 33 1010.3
20260503182827 12 306 6.4 0.0 0.00 0.00 0.00 35 1010.5
20260503182333 12 14 4.8 0.0 0.00 0.00 0.00 36 1010.2
20260503181842 11 329 3.2 0.0 0.00 0.00 0.00 35 1010.4
20260503181325 11 9 4.8 0.0 0.00 0.00 0.00 35 1010.3
20260503180827 11 254 6.4 0.0 0.00 0.00 0.00 34 1010.4
20260503180333 12 337 4.8 0.0 0.00 0.00 0.00 33 1010.6
20260503175838 12 350 4.8 0.0 0.00 0.00 0.00 38 1010.3
20260503175343 12 17 4.8 0.0 0.00 0.00 0.00 34 1010.3
20260503174817 12 290 4.8 0.0 0.00 0.00 0.00 36 1010.4
20260503174315 12 24 4.8 0.0 0.00 0.00 0.00 37 1010.4
20260503173821 12 5 6.4 0.0 0.00 0.00 0.00 36 1010.4
20260503173326 12 303 6.4 0.0 0.00 0.00 0.00 35 1010.4
20260503172830 11 236 3.2 0.0 0.00 0.00 0.00 38 1010.5
20260503172316 11 284 3.2 0.0 0.00 0.00 0.00 35 1010.5
20260503171830 11 30 4.8 0.0 0.00 0.00 0.00 34 1010.6
20260503171328 11 12 4.8 0.0 0.00 0.00 0.00 36 1010.5
20260503170816 11 355 4.8 0.0 0.00 0.00 0.00 34 1010.6
20260503170319 12 9 4.8 0.0 0.00 0.00 0.00 34 1010.7
20260503150813 8 355 4.8 0.0 0.00 0.00 0.00 47 1011.6
20260503150321 8 355 3.2 0.0 0.00 0.00 0.00 48 1011.4
20260503131331 6 30 4.8 0.0 0.00 0.00 0.00 59 1011.6
20260503130816 6 355 3.2 0.0 0.00 0.00 0.00 60 1011.7
20260503130318 6 42 1.6 0.0 0.00 0.00 0.00 60 1011.7
20260503110331 4 360 6.4 0.0 0.00 0.00 0.00 69 1010.7